Location: Newark
(43.6583°N, 1.6617°E)
Time: 21:10:29
(UTC+00:00)

Tiros 1 - Pass Details

Date: 29 August 2019
Orbit: 630 x 664 km, 48.4° (Epoch: 18 October)

Event Time Altitude Azimuth Distance (km) Brightness Sun altitude
Rises 00:35:19 0° 284° (WNW) 2,917 - -36.0°
Reaches altitude 10° 00:37:43 10° 290° (WNW) 2,011 - -35.9°
Maximum altitude 00:42:11 47° 5° (N) 843 - -35.7°
Drops below altitude 10° 00:46:40 10° 79° (E) 2,023 - -35.5°
Exits shadow 00:48:39 - 85° (E) 2,771 10.6 -35.4°
Sets 00:49:05 0° 85° (E) 2,936 10.8 -35.4°
